sat.trackr.live / text

‹ back to catalog

STARLINK-5907

NORAD 56021 · 2023-042AM

PAYLOAD ACTIVE UNKNOWN

§ Identity

Operator
Country
US
Launch date
2023-03-24
Launch site
AFETR
Launch vehicle
Mass (kg)
RCS (m²)

Purposes: comms

External: N2YO · Heavens-Above · Gunter

§ Orbital elements

Epoch: 2026-09-19T16:35:40.607808Z

Period
94.27 min
Inclination
43.0039°
Eccentricity
0.0002466
Mean motion
15.27591065 rev/d
Perigee alt
481.3 km
Apogee alt
484.7 km
Semi-major
6,861.2 km
B*
4.1259e-5
RAAN
29.7669°
Arg perigee
271.3378°
Mean anomaly
88.7191°
Rev number
19,270

§ Raw data

STARLINK-59071 56021U 23042AM  26262.69144222  .00000873  00000+0  41259-4 0  99952 56021  43.0039  29.7669 0002466 271.3378  88.7191 15.27591065192707

JSON: /api/v1/satellites/56021 · /tle

For live sub-satellite position, see the globe view (requires WebGL).

§ Visibility from observer

Set your observer location to see the next 7 days of passes ≥ 10°. The values pass through the URL so the page stays shareable.

No JS? Fill the form by hand. The geolocation button needs JavaScript.